This demonstration page uses our WeatherBlox Daily Observations layout. Learn more.

38.89511, -77.03637

Hourly Observations for September 27, 2017

Temp ( °F °C ) Dew Point ( °F °C ) Humidity (%) Winds ( mph kmh ) Pressure ( in mb ) Visibility ( mi km ) Precip ( " mm )
12:52 am 00:52 Mostly Cloudy 77 25 70 21.1 79 79 NNE 8 13 29.91 1013 10 16.09344 0 0
1:52 am 01:52 Partly Cloudy 76 24.4 71 21.7 85 85 NNE 7 11 29.91 1013 10 16.09344 0 0
2:52 am 02:52 Mostly Clear 76 24.4 70 21.1 82 82 NNE 8 13 29.88 1012 10 16.09344 0 0
3:52 am 03:52 Mostly Clear 74 23.3 70 21.1 88 88 NNW 9 15 29.88 1012 10 16.09344 0 0
4:52 am 04:52 Mostly Clear 74 23.3 69 20.6 85 85 N 8 13 29.88 1012 10 16.09344 0 0
5:52 am 05:52 Mostly Clear 73 22.8 69 20.6 87 87 N 9 15 29.88 1012 10 16.09344 0 0
6:43 am 06:43 Mostly Cloudy 73 22.8 68 20 84 84 NNE 10 17 29.91 1013 10 16.09344 0 0
6:52 am 06:52 Mostly Cloudy 74 23.3 68 20 82 82 NNE 12 19 29.88 1012 10 16.09344 0 0
7:48 am 07:48 Mostly Cloudy 73 23 70 21 89 89 NNE 13 20 29.91 1013 10 16.09344 0 0
7:52 am 07:52 Mostly Cloudy 74 23.3 69 20.6 85 85 N 13 20 29.88 1012 10 16.09344 0 0
8:11 am 08:11 Partly Cloudy 75 23.9 70 21.1 84 84 NNE 10 17 29.91 1013 10 16.09344 0 0
8:52 am 08:52 Partly Cloudy 77 25 71 21.7 82 82 N 12 19 29.88 1012 10 16.09344 0 0
9:52 am 09:52 Mostly Sunny 81 27.2 71 21.7 72 72 N 12 19 29.88 1012 10 16.09344 0 0
10:52 am 10:52 Partly Cloudy 83 28.3 71 21.7 67 67 N 13 20 29.85 1011 10 16.09344 0 0
11:19 am 11:19 Mostly Cloudy 85 29.4 72 22.2 65 65 NE 10 17 29.88 1012 10 16.09344 0 0
11:52 am 11:52 Mostly Cloudy 85 29.4 72 22.2 65 65 N 10 17 29.85 1011 10 16.09344 0 0
11:58 am 11:58 Mostly Cloudy 84 28.9 72 22.2 67 67 NNE 13 20 29.88 1012 10 16.09344 0 0
12:52 pm 12:52 Mostly Cloudy 87 30.6 72 22.2 61 61 NNE 9 15 29.83 1010 10 16.09344 0 0
1:52 pm 13:52 Partly Cloudy 89 31.7 71 21.7 55 55 NNE 12 19 29.8 1009 10 16.09344 0 0
2:52 pm 14:52 Partly Cloudy 90 32.2 70 21.1 52 52 N 13 20 29.8 1009 10 16.09344 0 0
3:52 pm 15:52 Partly Cloudy 91 32.8 69 20.6 49 49 N 12 19 29.77 1008 10 16.09344 0 0
4:52 pm 16:52 Mostly Cloudy 91 32.8 69 20.6 49 49 N 13 20 29.77 1008 10 16.09344 0 0
5:52 pm 17:52 Partly Cloudy 89 31.7 68 20 50 50 N 16 26 29.77 1008 10 16.09344 0 0
6:52 pm 18:52 Mostly Sunny 86 30 69 20.6 57 57 N 8 13 29.77 1008 10 16.09344 0 0
7:52 pm 19:52 Mostly Clear 83 28.3 70 21.1 65 65 N 9 15 29.77 1008 10 16.09344 0 0
8:52 pm 20:52 Mostly Clear 83 28.3 68 20 61 61 NNW 10 17 29.77 1008 10 16.09344 0 0
9:52 pm 21:52 Clear 81 27.2 68 20 65 65 NNW 8 13 29.77 1008 10 16.09344 0 0
10:52 pm 22:52 Clear 78 25.6 67 19.4 69 69 N 8 13 29.77 1008 10 16.09344 0 0
11:52 pm 23:52 Clear 76 24.4 67 19.4 74 74 N 6 9 29.77 1008 10 16.09344 0 0

Powered by AerisWeather